Estació meteorològica de Bellmunt (Osona, Osona)

Consulta les dades en temps real de l'estació meteorològica de Bellmunt





Hora UTC 10:55
Temperatura 11.9 ºC
Humitat 89.0 %
Pressió 1011.0 hPa
Pluja 0.6 mm
Velocitat vent 8.0 km/h
Direcció vent SSW

Dades diàries 2026-05-04



Hora UTC (hivern +1h; estiu +2h)
Temperatura (ºC) Humitat (%) Pressió (hPa) Velocitat vent (km/h) Precipitació (mm)
Hora UTC Aire Humitat Pressió Vel. Dir. Vel. Max Dir. Intent. màx 5 min.
00:05 7.8 93.0 1012.5 12.9 W 12.9 0.0
00:10 7.8 93.0 1012.4 11.3 WNW 14.5 0.0
00:15 7.8 93.0 1012.4 8.0 WNW 12.9 0.0
00:20 7.8 93.0 1012.4 11.3 WNW 11.3 0.0
00:25 7.9 93.0 1012.4 12.9 WNW 12.9 0.0
00:30 7.9 93.0 1012.5 11.3 WNW 14.5 0.0
00:35 7.9 93.0 1012.4 12.9 WNW 14.5 0.0
00:40 7.9 93.0 1012.4 14.5 WNW 16.1 0.0
00:45 7.9 93.0 1012.5 16.1 WNW 17.7 0.0
00:50 7.9 93.0 1012.5 14.5 W 17.7 0.0
00:55 7.9 93.0 1012.5 11.3 W 16.1 0.0
01:00 8.0 93.0 1012.4 11.3 WNW 14.5 0.0
01:05 7.9 93.0 1012.4 14.5 W 14.5 0.0
01:10 7.9 93.0 1012.4 14.5 W 16.1 0.0
01:15 7.9 93.0 1012.4 14.5 W 16.1 0.0
01:20 7.9 93.0 1012.2 14.5 W 14.5 0.0
01:25 7.9 93.0 1012.2 12.9 W 14.5 0.0
01:30 7.9 93.0 1012.2 12.9 W 14.5 0.0
01:35 7.9 93.0 1012.2 14.5 WNW 16.1 0.0
01:40 7.9 93.0 1012.1 12.9 W 16.1 0.0
01:45 7.9 93.0 1012.0 12.9 W 14.5 0.0
01:50 7.8 93.0 1012.0 12.9 WNW 16.1 0.0
01:55 7.8 94.0 1012.0 12.9 WNW 16.1 0.0
02:00 7.8 94.0 1012.0 14.5 W 16.1 0.0
02:05 7.8 94.0 1012.0 12.9 W 19.3 0.0
02:10 7.9 94.0 1012.0 11.3 W 19.3 0.0
02:15 7.9 94.0 1011.9 12.9 W 16.1 0.0
02:20 8.0 94.0 1011.8 11.3 WSW 16.1 0.0
02:25 8.1 94.0 1011.8 14.5 WSW 16.1 0.0
02:30 8.1 94.0 1011.9 14.5 WSW 19.3 0.0
02:35 8.1 94.0 1011.7 19.3 WSW 19.3 0.0
02:40 8.1 94.0 1012.2 12.9 WSW 19.3 0.0
02:45 8.1 94.0 1011.8 11.3 W 17.7 0.0
02:50 8.1 94.0 1011.7 9.7 W 14.5 0.0
02:55 8.1 94.0 1011.6 6.4 W 14.5 0.0
03:00 8.0 94.0 1011.5 9.7 W 12.9 0.0
03:05 8.0 94.0 1011.7 8.0 SW 14.5 0.0
03:10 8.0 94.0 1011.8 14.5 SW 16.1 0.0
03:15 8.0 94.0 1011.8 14.5 SW 19.3 0.0
03:20 8.0 94.0 1011.8 8.0 SW 17.7 0.0
03:25 8.0 94.0 1011.7 9.7 SSW 16.1 0.0
03:30 8.0 94.0 1011.7 8.0 SSW 12.9 0.0
03:35 7.9 94.0 1011.5 11.3 S 14.5 0.0
03:40 8.0 94.0 1011.5 6.4 SSW 14.5 0.0
03:45 7.9 94.0 1011.5 4.8 SW 8.0 0.0
03:50 7.9 94.0 1011.6 9.7 WSW 11.3 0.0
03:55 7.9 94.0 1011.6 11.3 SSW 14.5 0.0
04:00 7.9 94.0 1011.5 20.9 SSW 22.5 0.0
04:05 7.9 94.0 1011.6 4.8 SW 19.3 0.0
04:10 7.9 94.0 1011.5 17.7 SSW 17.7 0.0
04:15 7.9 94.0 1011.5 12.9 SW 17.7 0.0
04:20 8.1 94.0 1011.4 17.7 SSW 20.9 0.0
04:25 8.1 94.0 1011.4 16.1 S 19.3 0.0
04:30 8.1 94.0 1011.4 16.1 SW 24.1 0.0
04:35 8.2 94.0 1011.4 19.3 SW 25.7 0.0
04:40 8.3 94.0 1011.4 17.7 SW 30.6 0.0
04:45 8.2 94.0 1011.3 6.4 SSW 29.0 0.0
04:50 8.1 94.0 1011.3 16.1 WSW 25.7 0.0
04:55 8.2 94.0 1011.3 25.7 SW 27.4 0.0
05:00 8.2 94.0 1011.3 30.6 WSW 32.2 0.0
05:05 8.4 94.0 1011.3 24.1 WSW 37.0 0.0
05:10 8.2 94.0 1011.2 24.1 SW 37.0 0.0
05:15 8.3 94.0 1011.2 27.4 SW 37.0 0.0
05:20 8.4 94.0 1011.3 20.9 SW 33.8 0.0
05:25 8.4 94.0 1011.3 20.9 WSW 32.2 0.0
05:30 8.2 94.0 1011.3 27.4 SW 32.2 0.0
05:35 8.3 93.0 1011.2 25.7 WSW 29.0 0.0
05:40 8.2 93.0 1011.2 22.5 WSW 29.0 0.0
05:45 8.2 93.0 1011.3 29.0 WSW 29.0 0.0
05:50 8.3 93.0 1011.3 20.9 WSW 29.0 0.0
05:55 8.4 93.0 1011.4 16.1 WSW 27.4 0.0
06:00 8.3 93.0 1011.3 20.9 SW 29.0 0.0
06:05 8.3 93.0 1011.4 9.7 SW 29.0 0.0
06:10 8.2 93.0 1011.4 17.7 WSW 24.1 0.0
06:15 8.1 93.0 1011.4 8.0 WSW 19.3 0.0
06:20 8.2 93.0 1011.4 9.7 W 16.1 0.0
06:25 8.1 93.0 1011.4 4.8 W 12.9 0.0
06:30 8.1 93.0 1011.4 11.3 WNW 16.1 0.0
06:35 8.1 93.0 1011.4 11.3 WSW 16.1 0.0
06:40 8.1 93.0 1011.5 11.3 W 17.7 0.0
06:45 8.0 93.0 1011.6 12.9 WNW 17.7 0.0
06:50 7.9 93.0 1011.6 14.5 WNW 16.1 0.0
06:55 7.9 93.0 1011.6 12.9 W 17.7 0.0
07:00 7.9 93.0 1011.7 16.1 WNW 17.7 0.0
07:05 8.0 93.0 1011.5 16.1 NW 20.9 0.2
07:10 8.1 93.0 1011.3 14.5 NNW 20.9 0.2
07:15 8.0 94.0 1011.5 8.0 NW 17.7 0.0
07:20 8.1 94.0 1011.5 14.5 NW 17.7 0.0
07:25 8.1 94.0 1011.5 16.1 NW 17.7 0.2
07:30 8.1 94.0 1011.5 16.1 NW 17.7 0.0
07:35 8.3 94.0 1011.4 16.1 NW 17.7 0.0
07:40 8.7 94.0 1011.4 16.1 NW 19.3 0.0
07:45 8.8 92.0 1011.5 14.5 NW 19.3 0.0
07:50 8.9 91.0 1011.5 16.1 WNW 16.1 0.0
07:55 9.1 91.0 1011.5 11.3 WNW 16.1 0.0
08:00 9.2 91.0 1011.4 12.9 NW 14.5 0.0
08:05 9.4 91.0 1011.4 6.4 NW 14.5 0.0
08:10 9.3 90.0 1011.5 8.0 WNW 14.5 0.0
08:15 9.6 91.0 1011.5 6.4 NW 12.9 0.0
08:20 9.5 90.0 1011.4 6.4 NW 12.9 0.0
08:25 9.6 89.0 1011.5 8.0 NNW 14.5 0.0
08:30 9.6 89.0 1011.5 6.4 WNW 14.5 0.0
08:35 9.7 89.0 1011.4 8.0 WNW 12.9 0.0
08:40 9.7 90.0 1011.4 9.7 W 14.5 0.0
08:45 9.7 89.0 1011.4 14.5 W 14.5 0.0
08:50 9.8 89.0 1011.4 6.4 WNW 14.5 0.0
08:55 9.8 89.0 1011.5 6.4 WSW 12.9 0.0
09:00 9.7 89.0 1011.4 9.7 W 12.9 0.0
09:05 9.7 87.0 1011.4 6.4 W 12.9 0.0
09:10 10.0 84.0 1011.4 14.5 WSW 17.7 0.0
09:15 10.2 85.0 1011.4 12.9 W 17.7 0.0
09:20 10.3 87.0 1011.4 4.8 SSW 16.1 0.0
09:25 10.4 85.0 1011.4 11.3 WNW 17.7 0.0
09:30 10.7 85.0 1011.4 3.2 SW 19.3 0.0
09:35 10.9 84.0 1011.4 9.7 W 16.1 0.0
09:40 11.1 85.0 1011.5 0.0 WNW 11.3 0.0
09:45 11.4 88.0 1011.5 4.8 SW 12.9 0.0
09:50 11.4 89.0 1011.4 8.0 S 12.9 0.0
09:55 11.5 90.0 1011.3 4.8 S 12.9 0.0
10:00 11.2 89.0 1011.3 8.0 S 9.7 0.0
10:05 10.9 90.0 1011.4 4.8 SSW 16.1 0.0
10:10 10.8 90.0 1011.4 6.4 S 14.5 0.0
10:15 10.8 91.0 1011.3 0.0 S 14.5 0.0
10:20 10.9 91.0 1011.3 4.8 S 6.4 0.0
10:25 11.0 91.0 1011.3 1.6 SW 9.7 0.0
10:30 11.2 92.0 1011.2 3.2 NE 9.7 0.0
10:35 11.4 91.0 1011.2 4.8 S 8.0 0.0
10:40 11.4 91.0 1011.1 6.4 SSW 9.7 0.0
10:45 11.6 91.0 1011.1 0.0 SE 8.0 0.0
10:50 12.1 91.0 1011.0 3.2 S 6.4 0.0
10:55 11.9 89.0 1011.0 8.0 SSW 9.7 0.0
Màxima 12.1 94.0 1012.5 30.6 WSW 37.0 0.2
Mínima 7.8 84.0 1011.0
Total 0.6